Location: ?????
(31.8092°N, 35.2590°E)
Time: 11:06:24
(UTC+00:00)

Cosmos 1455 Rocket - Pass Details

Date: 18 October 2021
Orbit: 604 x 630 km, 82.5° (Epoch: 26 November)

Event Time Altitude Azimuth Distance (km) Brightness Sun altitude
Rises 15:22:22 0° 162° (SSE) 2,869 6.4 -4.8°
Reaches altitude 10° 15:24:46 10° 152° (SSE) 1,973 5.5 -5.3°
Maximum altitude 15:28:36 30° 90° (E) 1,109 3.8 -6.1°
Drops below altitude 10° 15:32:28 10° 29° (NNE) 1,998 5.3 -6.9°
Sets 15:34:54 0° 19° (NNE) 2,912 6.2 -7.5°
